TimeEST,TemperatureF,Dew PointF,Humidity,Sea Level PressureIn,VisibilityMPH,Wind Direction,Wind SpeedMPH,Gust SpeedMPH,PrecipitationIn,Events,Conditions,WindDirDegrees,DateUTC
12:53 AM,52.0,50.0,93,30.30,10.0,Calm,Calm,-,0.00,Rain,Light Rain,0,2013-02-11 05:53:00
1:53 AM,53.1,50.0,89,30.27,10.0,SE,3.5,-,0.00,Rain,Light Rain,130,2013-02-11 06:53:00
2:53 AM,57.9,52.0,81,30.21,10.0,SSE,12.7,-,0.01,Rain,Light Rain,160,2013-02-11 07:53:00
3:53 AM,60.1,53.1,78,30.17,10.0,South,12.7,21.9,0.01,Rain,Light Rain,180,2013-02-11 08:53:00
4:53 AM,60.1,54.0,80,30.16,10.0,South,12.7,-,0.01,Rain,Light Rain,170,2013-02-11 09:53:00
5:53 AM,60.1,55.0,83,30.14,10.0,South,19.6,23.0,0.02,,Mostly Cloudy,180,2013-02-11 10:53:00
6:53 AM,62.1,55.9,80,30.15,10.0,South,18.4,25.3,0.00,,Overcast,190,2013-02-11 11:53:00
7:53 AM,63.0,57.0,81,30.15,10.0,South,13.8,20.7,0.01,Rain,Light Rain,190,2013-02-11 12:53:00
8:53 AM,63.0,57.9,84,30.15,10.0,SSW,12.7,21.9,0.00,Rain,Light Rain,200,2013-02-11 13:53:00
9:53 AM,63.0,59.0,87,30.14,10.0,SSW,15.0,20.7,0.01,Rain,Light Rain,200,2013-02-11 14:53:00
10:15 AM,62.6,60.8,94,30.14,5.0,SSW,15.0,20.7,0.00,Rain,Light Rain,200,2013-02-11 15:15:00
10:46 AM,62.6,60.8,94,30.14,5.0,SSW,15.0,20.7,0.02,Rain,Light Rain,210,2013-02-11 15:46:00
10:53 AM,64.0,61.0,90,30.13,6.0,SSW,15.0,21.9,0.02,Rain,Light Rain,210,2013-02-11 15:53:00
11:35 AM,64.4,60.8,88,30.12,10.0,SW,13.8,21.9,0.00,Rain,Light Rain,220,2013-02-11 16:35:00
11:53 AM,64.0,61.0,90,30.11,10.0,SSW,11.5,-,0.01,Rain,Light Rain,210,2013-02-11 16:53:00
12:53 PM,64.9,61.0,87,30.08,10.0,SW,12.7,26.5,0.00,,Overcast,220,2013-02-11 17:53:00
1:53 PM,64.0,60.1,87,30.04,10.0,SW,17.3,26.5,0.01,Rain,Light Rain,220,2013-02-11 18:53:00
2:02 PM,64.4,60.8,88,30.03,10.0,SSW,20.7,29.9,0.00,Rain,Light Rain,200,2013-02-11 19:02:00
2:53 PM,66.9,59.0,76,30.04,10.0,SW,20.7,26.5,0.00,,Overcast,230,2013-02-11 19:53:00
3:12 PM,66.2,59.0,78,30.04,10.0,SW,23.0,35.7,N/A,,Overcast,230,2013-02-11 20:12:00
3:53 PM,66.0,60.1,81,30.04,10.0,SW,16.1,23.0,N/A,,Overcast,230,2013-02-11 20:53:00
4:03 PM,66.2,60.8,83,30.03,10.0,SW,15.0,23.0,N/A,,Overcast,230,2013-02-11 21:03:00
4:53 PM,64.9,60.1,84,30.02,10.0,SW,9.2,-,N/A,,Partly Cloudy,220,2013-02-11 21:53:00
5:46 PM,64.4,60.8,88,30.02,10.0,SSW,12.7,-,N/A,,Scattered Clouds,210,2013-02-11 22:46:00
5:53 PM,64.0,60.1,87,30.02,10.0,SSW,12.7,20.7,N/A,,Partly Cloudy,200,2013-02-11 22:53:00
6:53 PM,64.0,60.1,87,30.03,10.0,SW,12.7,-,N/A,,Mostly Cloudy,230,2013-02-11 23:53:00
7:53 PM,63.0,60.1,90,30.04,10.0,SW,9.2,-,0.00,Rain,Light Rain,220,2013-02-12 00:53:00
8:53 PM,63.0,60.1,90,30.00,10.0,SSW,16.1,-,0.01,,Mostly Cloudy,200,2013-02-12 01:53:00
9:53 PM,62.1,59.0,90,29.99,10.0,SW,9.2,-,N/A,,Scattered Clouds,230,2013-02-12 02:53:00
10:53 PM,62.1,57.9,86,30.01,10.0,West,12.7,-,0.00,Rain,Light Rain,280,2013-02-12 03:53:00
11:00 PM,62.6,57.2,82,30.02,10.0,WNW,10.4,-,0.00,Rain,Light Rain,290,2013-02-12 04:00:00
11:17 PM,62.6,59.0,88,30.00,10.0,West,11.5,-,0.00,,Overcast,270,2013-02-12 04:17:00
11:53 PM,62.1,57.9,86,30.01,10.0,WSW,12.7,-,0.01,Rain,Light Rain,240,2013-02-12 04:53:00